{"data":{"norad_id":52877,"epoch":"2026-09-19T12:35:48.257376Z","epoch_age_seconds":153052,"freshness":"FRESH","line1":"1 52877U 22062AZ  26262.52486409  .00000007  00000+0  11334-4 0  9999","line2":"2 52877  53.1587 210.4766 0001390  79.8193 280.2967 15.34395116235514","mean_motion":15.34395116,"eccentricity":0.000139,"inclination_deg":53.1587,"raan_deg":210.4766,"arg_perigee_deg":79.8193,"mean_anomaly_deg":280.2967,"bstar":1.1334e-5,"rev_number":23551,"period_min":93.848056799993,"perigee_km":461.76687771171,"apogee_km":463.66863533402,"semimajor_km":6840.8547565229,"source":"CELESTRAK","updated_at":"2026-09-20T09:00:40.137476Z"}}